BMCB-21 Weather Reports


time (UTC)temp
C
wind
direction
speed
KPH
gust
KPH
rain 1hr
cm
rain 24hr
cm
rain mn
cm
humidity
%
barometer
mb
20260503072040 15 0 0.0 0.0 0.00 0.00 0.00 76 1010.5
20260503071046 15 0 0.0 0.0 0.00 0.00 0.00 78 1010.5
20260503055035 12 0 0.0 0.0 0.00 0.00 0.00 93 1010.3
20260503054040 12 0 0.0 0.0 0.00 0.00 0.00 93 1010.4
20260503053045 12 0 0.0 0.0 0.00 0.00 0.00 93 1010.5
20260503052035 12 0 0.0 0.0 0.00 0.00 0.00 94 1010.5
20260503051045 12 0 0.0 0.0 0.00 0.00 0.00 94 1010.5
20260503050038 12 0 0.0 0.0 0.00 0.00 0.00 95 1010.4
20260503045037 11 0 0.0 0.0 0.00 0.00 0.00 94 1010.5
20260503044041 11 0 0.0 0.0 0.00 0.00 0.00 95 1010.6
20260503043041 11 0 0.0 0.0 0.00 0.00 0.00 94 1010.5
20260503042044 11 0 0.0 0.0 0.00 0.00 0.00 94 1010.6
20260503041044 11 0 0.0 0.0 0.00 0.00 0.00 94 1010.6
20260503040038 12 0 0.0 0.0 0.00 0.00 0.00 93 1010.8
20260503035040 12 0 0.0 0.0 0.00 0.00 0.00 93 1010.9
20260503034041 12 0 0.0 0.0 0.00 0.00 0.00 92 1010.8
20260503033038 12 0 0.0 0.0 0.00 0.00 0.00 92 1010.8
20260503032040 13 0 0.0 0.0 0.00 0.00 0.00 91 1010.9
20260503031043 13 0 0.0 0.0 0.00 0.00 0.00 91 1010.9
20260503030040 13 0 0.0 0.0 0.00 0.00 0.00 91 1010.9
20260503023042 13 0 0.0 0.0 0.00 0.00 0.00 93 1011.1
20260503022041 12 0 0.0 0.0 0.00 0.00 0.00 93 1011.1
20260503021041 12 0 0.0 0.0 0.00 0.00 0.00 93 1011.1
20260503020043 12 0 0.0 0.0 0.00 0.00 0.00 93 1011.1
20260503015041 12 0 0.0 0.0 0.00 0.00 0.00 93 1011.2
20260503014041 12 0 0.0 0.0 0.00 0.00 0.00 93 1011.2
20260503013043 12 0 0.0 0.0 0.00 0.00 0.00 93 1011.4
20260503012043 12 0 0.0 0.0 0.00 0.00 0.00 92 1011.5
20260503011047 12 0 0.0 0.0 0.00 0.00 0.00 93 1011.5
20260503010043 12 0 0.0 0.0 0.00 0.00 0.00 93 1011.6
20260503005041 12 0 0.0 0.0 0.00 0.00 0.00 92 1011.7
20260503002044 12 0 0.0 0.0 0.00 0.00 0.00 91 1011.8
20260503001043 13 0 0.0 0.0 0.00 0.00 0.00 92 1011.9
20260503000047 13 0 0.0 0.0 0.00 0.00 0.00 92 1012.0
20260502235047 12 0 0.0 0.0 0.00 0.00 0.00 91 1012.0
20260502234048 13 0 0.0 0.0 0.00 0.00 0.00 90 1012.2
20260502233052 13 0 0.0 0.0 0.00 0.00 0.00 90 1012.2
20260502232046 13 0 0.0 0.0 0.00 0.00 0.00 89 1012.1
20260502231045 14 0 0.0 0.0 0.00 0.00 0.00 88 1012.1
20260502230044 14 0 0.0 0.0 0.00 0.00 0.00 87 1012.2
20260502225046 14 0 0.0 0.0 0.00 0.00 0.00 87 1012.2
20260502224045 15 0 0.0 0.0 0.00 0.00 0.00 86 1012.2
20260502223046 15 0 0.0 0.0 0.00 0.00 0.00 86 1012.3
20260502221046 15 0 0.0 0.0 0.00 0.00 0.00 86 1012.2
20260502220047 15 0 0.0 0.0 0.00 0.00 0.00 85 1012.2
20260502215049 15 0 0.0 0.0 0.00 0.00 0.00 85 1012.2
20260502213051 15 0 0.0 0.0 0.00 0.00 0.00 83 1012.3
20260502211048 15 0 0.0 0.0 0.00 0.00 0.00 83 1012.4
20260502210050 16 0 0.0 0.0 0.00 0.00 0.00 82 1012.4
20260502205050 17 0 0.0 0.0 0.00 0.00 0.00 78 1012.4
20260502204049 17 0 0.0 0.0 0.00 0.00 0.00 75 1012.4
20260502203051 17 0 0.0 0.0 0.00 0.00 0.00 78 1012.4
20260502202052 17 0 0.0 0.0 0.00 0.00 0.00 77 1012.5
20260502201054 17 0 0.0 0.0 0.00 0.00 0.00 76 1012.6
20260502200052 17 0 0.0 0.0 0.00 0.00 0.00 75 1012.6
20260502195048 18 0 0.0 0.0 0.00 0.00 0.00 73 1012.6
20260502194049 18 0 0.0 0.0 0.00 0.00 0.00 72 1012.6
20260502192022 20 0 0.0 0.0 0.00 0.00 0.00 68 1012.6
20260502191021 20 0 0.0 0.0 0.00 0.00 0.00 67 1012.6
20260502190021 20 0 0.0 0.0 0.00 0.00 0.00 64 1012.5
20260502185020 21 0 0.0 0.0 0.00 0.00 0.00 62 1012.6
20260502184020 21 0 0.0 0.0 0.00 0.00 0.00 62 1012.5
20260502183021 21 0 0.0 0.0 0.00 0.00 0.00 61 1012.5
20260502182023 22 0 0.0 0.0 0.00 0.00 0.00 60 1012.5
20260502164022 23 0 0.0 0.0 0.00 0.00 0.00 55 1012.8
20260502163025 23 0 0.0 0.0 0.00 0.00 0.00 55 1013.0
20260502162022 23 0 0.0 0.0 0.00 0.00 0.00 54 1013.2
20260502161021 23 0 0.0 0.0 0.00 0.00 0.00 54 1013.2
20260502152022 23 0 0.0 0.0 0.00 0.00 0.00 54 1013.8
20260502123022 22 0 0.0 0.0 0.00 0.00 0.00 66 1016.5
20260502121020 21 0 0.0 0.0 0.00 0.00 0.00 68 1016.8
20260502114021 20 0 0.0 0.0 0.00 0.00 0.00 73 1017.2
20260502113045 20 0 0.0 0.0 0.00 0.00 0.00 70 1017.3
20260502112044 21 0 0.0 0.0 0.00 0.00 0.00 66 1017.3
20260502110020 21 0 0.0 0.0 0.00 0.00 0.00 62 1017.3
20260502105046 22 0 0.0 0.0 0.00 0.00 0.00 62 1017.4
20260502104021 22 0 0.0 0.0 0.00 0.00 0.00 61 1017.4
20260502103019 22 0 0.0 0.0 0.00 0.00 0.00 62 1017.4
20260502102022 21 0 0.0 0.0 0.00 0.00 0.00 61 1017.6
20260502091021 21 0 0.0 0.0 0.00 0.00 0.00 63 1017.9